FW2547 Weather Reports


Display with metric or nautical units.
time (UTC)temp
F
wind
direction
speed
MPH
gust
MPH
rain 1hr
in
rain 24hr
in
rain mn
in
humidity
%
barometer
mb
20260507064501 67 290 2.0 5.0 0.00 0.00 0.00 18 1012.4
20260507063059 67 290 3.0 5.0 0.00 0.00 0.00 18 1012.4
20260507061601 68 290 4.0 8.0 0.00 0.00 0.00 18 1012.2
20260507060058 67 275 4.0 7.0 0.00 0.00 0.00 19 1012.1
20260507054636 68 262 2.0 6.0 0.00 0.00 0.00 19 1011.9
20260507053054 68 300 4.0 7.0 0.00 0.00 0.00 20 1011.6
20260507051552 69 292 4.0 5.0 0.00 0.00 0.00 20 1011.8
20260507050056 69 269 2.0 6.0 0.00 0.00 0.00 19 1011.8
20260507044556 69 300 2.0 4.0 0.00 0.00 0.00 20 1011.8
20260507043050 71 313 1.0 3.0 0.00 0.00 0.00 19 1011.7
20260507041559 72 313 2.0 6.0 0.00 0.00 0.00 18 1011.4
20260507040048 72 331 3.0 5.0 0.00 0.00 0.00 16 1011.2
20260507034556 73 330 3.0 9.0 0.00 0.00 0.00 17 1011.2
20260507033053 73 323 5.0 9.0 0.00 0.00 0.00 16 1011.0
20260507031602 74 336 3.0 6.0 0.00 0.00 0.00 16 1010.9
20260507030053 74 344 3.0 8.0 0.00 0.00 0.00 16 1010.7
20260507024546 74 338 3.0 9.0 0.00 0.00 0.00 16 1010.3
20260507023046 75 328 3.0 9.0 0.00 0.00 0.00 16 1010.1
20260507021544 75 310 7.0 11.0 0.00 0.00 0.00 16 1010.0
20260507020047 75 298 7.0 15.0 0.00 0.00 0.00 16 1009.7
20260507014550 76 301 12.0 17.0 0.00 0.00 0.00 16 1009.5
20260507013045 76 303 9.0 12.0 0.00 0.00 0.00 16 1009.4
20260507011543 76 320 8.0 16.0 0.00 0.00 0.00 16 1009.3
20260507010043 77 303 10.0 18.0 0.00 0.00 0.00 16 1009.0
20260507004539 77 331 12.0 17.0 0.00 0.00 0.00 16 1008.8
20260507003043 77 319 13.0 21.0 0.00 0.00 0.00 16 1008.7
20260507001541 77 306 14.0 22.0 0.00 0.00 0.00 16 1008.6
20260507000041 78 277 13.0 16.0 0.00 0.00 0.00 16 1008.6
20260506234537 77 334 9.0 19.0 0.00 0.00 0.00 16 1008.3
20260506233041 77 330 11.0 24.0 0.00 0.00 0.00 16 1008.3
20260506231535 77 304 12.0 26.0 0.00 0.00 0.00 16 1008.5
20260506230032 78 305 9.0 24.0 0.00 0.00 0.00 16 1008.5
20260506224531 77 321 8.0 21.0 0.00 0.00 0.00 16 1008.7
20260506223029 77 279 18.0 26.0 0.00 0.00 0.00 16 1008.8
20260506221526 76 304 16.0 23.0 0.00 0.00 0.00 16 1008.9
20260506220024 76 311 13.0 29.0 0.00 0.00 0.00 17 1008.9
20260506214522 76 309 13.0 24.0 0.00 0.00 0.00 17 1008.9
20260506213020 76 302 14.0 23.0 0.00 0.00 0.00 17 1009.2
20260506211518 76 300 18.0 29.0 0.00 0.00 0.00 17 1009.3
20260506210017 75 279 19.0 28.0 0.00 0.00 0.00 17 1009.5
20260506204520 74 309 13.0 26.0 0.00 0.00 0.00 19 1009.7
20260506203017 75 251 10.0 26.0 0.00 0.00 0.00 19 1009.8
20260506201517 74 282 17.0 29.0 0.00 0.00 0.00 19 1010.0
20260506200012 74 267 19.0 25.0 0.00 0.00 0.00 19 1010.2
20260506194516 73 309 17.0 26.0 0.00 0.00 0.00 21 1010.3
20260506193009 72 295 12.0 22.0 0.00 0.00 0.00 21 1010.5
20260506191508 72 263 15.0 25.0 0.00 0.00 0.00 21 1010.6
20260506190006 72 301 10.0 25.0 0.00 0.00 0.00 22 1010.9
20260506184504 71 270 14.0 33.0 0.00 0.00 0.00 23 1011.1
20260506183000 71 271 10.0 26.0 0.00 0.00 0.00 23 1011.1
20260506181559 70 294 15.0 22.0 0.00 0.00 0.00 22 1011.2
20260506180105 70 304 19.0 25.0 0.00 0.00 0.00 24 1011.3
20260506174556 70 254 16.0 26.0 0.00 0.00 0.00 25 1011.4
20260506173057 69 286 14.0 24.0 0.00 0.00 0.00 25 1011.6
20260506171551 69 293 10.0 22.0 0.00 0.00 0.00 29 1011.5
20260506170057 68 286 12.0 24.0 0.00 0.00 0.00 30 1011.4
20260506164541 67 261 12.0 22.0 0.00 0.00 0.00 32 1011.5
20260506163056 67 287 14.0 20.0 0.00 0.00 0.00 33 1011.5
20260506161534 67 268 8.0 20.0 0.00 0.00 0.00 33 1011.5
20260506160031 66 313 11.0 20.0 0.00 0.00 0.00 34 1011.8
20260506154526 65 302 8.0 18.0 0.00 0.00 0.00 35 1011.7
20260506153021 65 329 9.0 15.0 0.00 0.00 0.00 35 1011.8
20260506151516 64 340 6.0 17.0 0.00 0.00 0.00 36 1011.8
20260506150012 63 293 8.0 14.0 0.00 0.00 0.00 37 1011.7
20260506144508 62 283 8.0 11.0 0.00 0.00 0.00 38 1011.9
20260506143004 62 300 7.0 11.0 0.00 0.00 0.00 39 1011.8
20260506141559 61 302 6.0 11.0 0.00 0.00 0.00 40 1011.8
20260506140058 60 303 7.0 12.0 0.00 0.00 0.00 41 1011.7
20260506134550 60 265 8.0 12.0 0.00 0.00 0.00 42 1011.6
20260506133045 59 295 9.0 12.0 0.00 0.00 0.00 42 1011.4
20260506131541 59 292 6.0 10.0 0.00 0.00 0.00 43 1011.4
20260506130037 58 316 5.0 10.0 0.00 0.00 0.00 43 1011.1
20260506124532 58 306 6.0 10.0 0.00 0.00 0.00 43 1010.9
20260506123033 58 307 6.0 9.0 0.00 0.00 0.00 43 1010.6
20260506121525 58 261 4.0 8.0 0.00 0.00 0.00 43 1010.4
20260506120023 59 259 4.0 8.0 0.00 0.00 0.00 41 1010.3
20260506114519 59 281 5.0 9.0 0.00 0.00 0.00 41 1010.2
20260506113016 60 282 7.0 11.0 0.00 0.00 0.00 40 1010.0
20260506111514 60 300 7.0 11.0 0.00 0.00 0.00 40 1009.7
20260506110010 60 279 8.0 12.0 0.00 0.00 0.00 39 1009.4
20260506104508 61 290 7.0 11.0 0.00 0.00 0.00 39 1009.3
20260506103005 61 291 8.0 11.0 0.00 0.00 0.00 38 1009.2
20260506101506 61 287 7.0 12.0 0.00 0.00 0.00 37 1009.1
20260506100059 62 300 9.0 12.0 0.00 0.00 0.00 36 1009.0
20260506094622 63 297 5.0 10.0 0.00 0.00 0.00 36 1009.0
20260506093056 63 309 8.0 12.0 0.00 0.00 0.00 35 1008.9
20260506091552 64 305 9.0 15.0 0.00 0.00 0.00 34 1008.6
20260506090047 64 300 8.0 14.0 0.00 0.00 0.00 32 1008.4
20260506084547 65 294 8.0 13.0 0.00 0.00 0.00 31 1008.2
20260506083043 65 295 10.0 16.0 0.00 0.00 0.00 29 1008.2
20260506081541 66 289 8.0 16.0 0.00 0.00 0.00 28 1008.1
20260506073042 67 286 11.0 18.0 0.00 0.00 0.00 26 1007.9
20260506071534 68 277 13.0 18.0 0.00 0.00 0.00 26 1007.8